星链-11200 (STARLINK-11200)

导读

STARLINK-11200是美国太空探索技术公司(SpaceX)打造的星链互联网卫星,属于星链星座组网卫星,于2024年7月28日发射升空,该卫星通过部署近地轨道,为全球提供高速低延迟的宽带互联网服务,拓展星链全球覆盖范围,服务各类终端设备与特殊场景通信需求。

基本信息
目录编号:
60310
目录名称:
STARLINK-11200
国际标识:
2024-133K
轨道中心:
EARTH
卫星名称:
星链-11200 (STARLINK-11200)
卫星全名:
星链-11200 (STARLINK-11200)
卫星状态:
在轨 (已飞行775 天)
发射日期:
2024-07-28 UTC
国别 :
美国 (US)
星等 :
--
该卫星已列入 空间交会检测服务 Space Conjunction Data Service (SCDS) ,当前飞行风险评估等级: 无高风险
轨道信息
数据来源 国际轨道数据
星历时间: 2026-09-10T18:18:57+0800
22小时前
查看轨道信息
半长轴: 6737.857km
偏心率: 0.0001156
轨道倾角: 53.159°
近地点辐角 80.354°
升交点赤经 315.223°
平近点角 279.761°
近地点: 358.941km
远地点: 360.499km
周期: 91.737分钟
每日圈数: 15.697126
详细信息
卫星平台:
Starlink v2.0 mini
运营商:
太空探索技术公司
运营商所在国:
美国
制造商(研发单位):
太空探索技术公司
制造商所在国:
美国
使用方式:
暂无
卫星简介
星链(Starlink)计划是由太空探索技术公司(SpaceX)提出的一个巨型低轨卫星互联网星座项目,计划在2019年至2024年间在太空搭建由约1.2万颗卫星组成的“星链”网络,其中1584颗将部署在地球上空550千米处的近地轨道,并从2020年开始工作。该卫星仍在工作。
2D轨道图
3D轨道图
轨道高度分析图
轨道倾角分析图
轨道综合分析图
查看轨道综合分析图
与全量物体交会距离演化趋势
与全量物体交会风险概率演化趋势